sat.trackr.live / text

‹ back to catalog

STARLINK-34999

NORAD 65222 · 2025-176AA

PAYLOAD ACTIVE UNKNOWN

§ Identity

Operator
Country
US
Launch date
2025-08-14
Launch site
AFETR
Launch vehicle
Mass (kg)
RCS (m²)

Purposes: comms

External: N2YO · Heavens-Above · Gunter

§ Orbital elements

Epoch: 2026-09-20T10:54:24.539616Z

Period
93.85 min
Inclination
53.1607°
Eccentricity
0.0001443
Mean motion
15.34413905 rev/d
Perigee alt
461.7 km
Apogee alt
463.6 km
Semi-major
6,840.8 km
B*
5.0662e-4
RAAN
324.2466°
Arg perigee
52.1113°
Mean anomaly
308.0020°
Rev number
6,299

§ Raw data

STARLINK-349991 65222U 25176AA  26263.45445069  .00016787  00000+0  50662-3 0  99942 65222  53.1607 324.2466 0001443  52.1113 308.0020 15.34413905 62997

JSON: /api/v1/satellites/65222 · /tle

For live sub-satellite position, see the globe view (requires WebGL).

§ Visibility from observer

Set your observer location to see the next 7 days of passes ≥ 10°. The values pass through the URL so the page stays shareable.

No JS? Fill the form by hand. The geolocation button needs JavaScript.